Battle Creek, MI

9:51 AM EST on November 15, 2019 (GMT -0500)
Kellogg

Weather History for KBTL - October, 2019

Change the Weather History Date:

Wednesday, October 23, 2019

  Actual Average Record
Temperature  
Mean Temperature 50 °F 48 °F  
Max Temperature 58 °F 58 °F 68 °F (2016)
Min Temperature 41 °F 37 °F 26 °F (1997)
Degree Days  
Heating Degree Days 15 17  
Month to date heating degree days 271 317  
Since 1 July heating degree days 312 514  
Cooling Degree Days 0 0  
Month to date cooling degree days 12 2  
Year to date cooling degree days 783 575  
Moisture  
Dew Point 36 °F    
Average Humidity 60    
Maximum Humidity 76    
Minimum Humidity 43    
Precipitation  
Precipitation T in 0.10 in 1.68 in (2017)
Month to date precipitation 2.89 2.35  
Year to date precipitation 30.72 27.54  
Sea Level Pressure  
Sea Level Pressure 29.91 in    
Wind  
Wind Speed 14 mph (SW)    
Max Wind Speed 24 mph    
Max Gust Speed 35 mph    
Visibility 10 miles    
Events      
T = Trace of Precipitation, MM = Missing Value Source: NWS Daily Summary

Daily Weather History Graph

Daily Weather History Graph

Search for Another Location

Airport or City:

Astronomy

Oct. 23, 2019 Rise Set
Actual Time 8:02 AM EDT 6:47 PM EDT
Civil Twilight 7:34 AM EDT 7:15 PM EDT
Nautical Twilight 7:01 AM EDT 7:48 PM EDT
Astronomical Twilight 6:29 AM EDT 8:20 PM EDT
Moon 2:12 AM EDT (10/23) 4:44 PM EDT (10/23)
Length of Visible Light 11h 41m
Length of Day
10h 44m
Waning Crescent, 27% of the Moon is Illuminated
Oct 23
Waning Crescent
Oct 27
New
Nov 4
First Quarter
Nov 12
Full
Nov 19
Last Quarter

Hourly Weather History & Observations

Time (EDT) Temp. Windchill Dew Point Humidity Pressure Visibility Wind Dir Wind Speed Gust Speed Precip Events Conditions
12:53 AM 48.0 °F - 37.0 °F 66% 29.77 in 10.0 mi SW 13.8 mph - N/A   Overcast
1:53 AM 46.9 °F - 37.0 °F 68% 29.78 in 10.0 mi SW 11.5 mph - N/A   Mostly Cloudy
2:53 AM 45.0 °F 38.9 °F 37.0 °F 74% 29.79 in 10.0 mi SW 12.7 mph - N/A   Clear
3:53 AM 43.0 °F 36.4 °F 36.0 °F 76% 29.79 in 10.0 mi SW 12.7 mph - N/A   Clear
4:53 AM 42.1 °F 35.2 °F 35.1 °F 76% 29.81 in 10.0 mi SW 12.7 mph - N/A   Clear
5:53 AM 42.1 °F 34.9 °F 34.0 °F 73% 29.83 in 10.0 mi SW 13.8 mph 23.0 mph N/A   Clear
6:53 AM 41.0 °F 32.2 °F 33.1 °F 73% 29.85 in 10.0 mi SW 18.4 mph 26.5 mph N/A   Clear
7:53 AM 41.0 °F 32.5 °F 33.1 °F 73% 29.88 in 10.0 mi SW 17.3 mph - N/A   Clear
8:53 AM 42.1 °F 34.2 °F 33.1 °F 70% 29.91 in 10.0 mi SW 16.1 mph - N/A   Clear
9:53 AM 45.0 °F 37.9 °F 35.1 °F 68% 29.94 in 10.0 mi SW 16.1 mph - N/A   Clear
10:53 AM 48.0 °F - 36.0 °F 63% 29.95 in 10.0 mi SW 16.1 mph 26.5 mph N/A   Clear
11:53 AM 52.0 °F - 33.1 °F 49% 29.96 in 10.0 mi WSW 24.2 mph 31.1 mph N/A   Clear
1:53 PM 55.9 °F - 35.1 °F 45% 29.96 in 10.0 mi SW 18.4 mph 26.5 mph N/A   Clear
2:53 PM 57.9 °F - 35.1 °F 42% 29.96 in 10.0 mi WSW 21.9 mph 32.2 mph N/A   Scattered Clouds
3:53 PM 55.9 °F - 36.0 °F 47% 29.95 in 10.0 mi WSW 16.1 mph - N/A   Overcast
4:53 PM 57.0 °F - 37.0 °F 47% 29.95 in 10.0 mi SW 13.8 mph - N/A   Mostly Cloudy
5:53 PM 55.9 °F - 37.9 °F 51% 29.96 in 10.0 mi SSW 16.1 mph 21.9 mph N/A   Clear
6:53 PM 53.1 °F - 39.0 °F 59% 29.98 in 10.0 mi South 8.1 mph - N/A   Overcast
7:53 PM 52.0 °F - 39.0 °F 61% 29.98 in 10.0 mi Calm Calm - N/A   Overcast
8:53 PM 52.0 °F - 39.0 °F 61% 29.98 in 10.0 mi SE 8.1 mph - N/A   Overcast
9:53 PM 52.0 °F - 39.0 °F 61% 29.99 in 10.0 mi SSW 6.9 mph - N/A   Overcast
10:53 PM 54.0 °F - 39.0 °F 57% 29.98 in 10.0 mi SSW 11.5 mph - N/A   Overcast
11:53 PM 55.9 °F - 37.9 °F 51% 29.98 in 10.0 mi SW 13.8 mph - 0.00 in   Overcast